[[{"header":{"parameterUnit":"m.s-1","parameterCategory":1,"la1":30.2992,"la2":30.254,"lo1":-89.0895,"lo2":-89.0443,"dy":0.0025,"dx":0.0025,"nx":19,"ny":19,"refTime":"2026-05-13T21:00:00:Z","depth":0,"parameterNumber":2,"parameterNumberName":"U-component_of_WINDS"},"data":[0,0,0,1.0448,1.045,1.0589,1.059,1.0772,1.0774,0,0,0,0,0,0,0,0,0,0,0,1.0405,1.0406,1.0447,1.0451,1.0589,1.059,1.0772,1.0774,0,0,0,0,0,0,0,0,0,0,0,1.0404,1.0405,1.0407,1.0451,1.0589,1.059,1.0772,1.0666,0,0,0,0,0,0,0,0,0,0,1.0531,1.0488,1.0405,1.0407,1.0452,1.0589,1.059,1.0661,1.0673,1.071,0,1.0738,0,1.0759,1.0786,1.0787,0,0,0,1.0454,1.0478,1.0517,1.0407,1.0453,1.0589,1.0528,1.0668,1.0681,1.0726,1.0741,1.0747,1.0762,1.0787,1.0788,1.0984,1.0984,0,0,1.0446,1.0429,1.0508,1.0526,1.0499,1.0523,1.0532,1.0676,1.0693,1.0741,1.0752,1.0765,1.0788,1.079,1.0983,1.0984,0,0,0,1.0422,1.0424,1.0459,1.0518,1.0542,1.0527,1.0537,1.0687,1.0699,1.0754,1.0767,1.0789,1.0792,1.0982,1.0983,1.1006,0,0,0,1.0418,1.041,1.0456,1.0447,1.0539,1.0615,1.0545,1.0689,1.0706,1.0766,1.079,1.0793,1.0981,1.0983,1.1003,1.1021,0,0,0,1.0396,1.0408,1.0426,1.0446,1.0504,1.0613,1.0634,1.0693,1.0714,1.0787,1.0794,1.098,1.0982,1.1001,1.1017,1.1069,0,0,0,1.037,1.0445,1.0426,1.0516,1.0503,1.0624,1.0633,1.0725,1.079,1.079,1.0981,1.0983,1.1,1.1015,1.1067,1.1112,1.1128,0,0,1.0456,1.0454,1.0509,1.0496,1.0616,1.0604,1.073,1.0806,1.083,1.0933,1.0938,1.1004,1.1017,1.1069,1.122,1.1233,0,0,0,1.053,1.0569,1.0605,1.0664,1.0722,1.0776,1.0834,1.0864,1.0951,1.0877,1.1036,1.1044,1.1076,1.1099,1.1109,1.1139,1.0992,1.0991,1.0991,1.063,1.0654,1.0747,1.0788,1.0846,1.0907,1.0958,1.1009,1.1017,1.1055,1.1086,1.1174,1.12,1.1208,1.1239,1.1109,1.111,1.111,1.111,1.076,1.0821,1.083,1.0923,1.095,1.1031,1.1094,1.1098,1.118,1.1152,1.1181,1.115,1.1221,1.125,1.1112,1.1111,1.1111,1.1111,1.1111,1.083,1.0863,1.0895,1.0986,1.1054,1.1095,1.1173,1.1196,1.1218,1.1246,1.1284,1.1284,1.129,1.1262,1.1262,1.1263,1.1263,1.1263,1.1263,1.0891,1.0926,1.0987,1.1056,1.1099,1.1159,1.1222,1.1266,1.1322,1.1333,1.1334,1.1342,1.1221,1.1192,1.1268,1.1267,1.1267,1.1266,1.1266,1.1019,1.0994,1.1088,1.113,1.1216,1.1285,1.1311,1.1401,1.1441,1.148,1.1482,1.1388,1.139,1.1382,1.1359,1.1473,1.1473,1.1473,1.1473,1.108,1.1082,1.1185,1.1253,1.1321,1.1356,1.1468,1.152,1.157,1.1598,1.1584,1.1554,1.1545,1.1553,1.1541,1.152,1.1673,1.1673,1.1673,1.1162,1.1172,1.1261,1.1305,1.1375,1.1436,1.1543,1.1625,1.1677,1.1682,1.1622,1.1613,1.1565,1.1547,1.1552,1.1533,1.1494,0,0]},{"header":{"parameterUnit":"m.s-1","parameterCategory":1,"la1":30.2992,"la2":30.254,"lo1":-89.0895,"lo2":-89.0443,"dy":0.0025,"dx":0.0025,"nx":19,"ny":19,"refTime":"2026-05-13T21:00:00:Z","depth":0,"parameterNumber":3,"parameterNumberName":"V-component_of_WINDS"},"data":[0,0,0,-1.275,-1.2749,-1.2696,-1.2696,-1.2619,-1.2618,0,0,0,0,0,0,0,0,0,0,0,-1.2763,-1.2763,-1.275,-1.2749,-1.2696,-1.2696,-1.2619,-1.2618,0,0,0,0,0,0,0,0,0,0,0,-1.2764,-1.2763,-1.2762,-1.2748,-1.2696,-1.2695,-1.2619,-1.2662,0,0,0,0,0,0,0,0,0,0,-1.2714,-1.2725,-1.2763,-1.2762,-1.2748,-1.2696,-1.2695,-1.2664,-1.2659,-1.264,0,-1.2626,0,-1.2621,-1.2613,-1.2613,0,0,0,-1.2749,-1.2729,-1.2717,-1.2762,-1.2748,-1.2696,-1.272,-1.2661,-1.2656,-1.2634,-1.2624,-1.2622,-1.2619,-1.2612,-1.2612,-1.2505,-1.2504,0,0,-1.2752,-1.2752,-1.2721,-1.2714,-1.2725,-1.2722,-1.2718,-1.2658,-1.2647,-1.2624,-1.262,-1.2618,-1.2612,-1.2611,-1.2505,-1.2505,0,0,0,-1.276,-1.2754,-1.2744,-1.2717,-1.2708,-1.272,-1.2716,-1.2649,-1.2646,-1.2619,-1.2617,-1.2611,-1.261,-1.2506,-1.2505,-1.2476,0,0,0,-1.2762,-1.2759,-1.2745,-1.2744,-1.2709,-1.2679,-1.2709,-1.265,-1.2644,-1.2618,-1.2611,-1.2609,-1.2507,-1.2506,-1.2479,-1.2462,0,0,0,-1.2767,-1.2759,-1.2751,-1.2744,-1.2722,-1.268,-1.2673,-1.2649,-1.2642,-1.2612,-1.2609,-1.2507,-1.2506,-1.248,-1.2465,-1.2431,0,0,0,-1.2772,-1.2727,-1.2751,-1.2699,-1.2722,-1.2664,-1.2674,-1.263,-1.2601,-1.2611,-1.2507,-1.2505,-1.2481,-1.2467,-1.2433,-1.24,-1.2388,0,0,-1.2715,-1.272,-1.269,-1.2709,-1.2647,-1.2672,-1.2605,-1.2578,-1.2575,-1.2527,-1.2525,-1.2478,-1.2465,-1.2431,-1.2322,-1.2312,0,0,0,-1.2671,-1.2648,-1.2632,-1.2606,-1.2586,-1.2565,-1.2549,-1.2539,-1.2499,-1.2552,-1.2458,-1.2451,-1.2431,-1.2415,-1.2406,-1.2387,-1.2499,-1.2499,-1.2499,-1.2587,-1.2586,-1.2534,-1.2526,-1.25,-1.2484,-1.2461,-1.2444,-1.2451,-1.2428,-1.2413,-1.2348,-1.2329,-1.2323,-1.2303,-1.2399,-1.2399,-1.2399,-1.2399,-1.2499,-1.2465,-1.2476,-1.2429,-1.2427,-1.2387,-1.2368,-1.2374,-1.2333,-1.236,-1.2342,-1.2367,-1.2312,-1.2294,-1.2396,-1.2397,-1.2397,-1.2397,-1.2397,-1.2441,-1.2424,-1.2414,-1.2374,-1.2342,-1.2336,-1.2296,-1.2296,-1.2296,-1.2279,-1.226,-1.2261,-1.2258,-1.2271,-1.2271,-1.227,-1.227,-1.227,-1.227,-1.2383,-1.2373,-1.234,-1.2314,-1.2296,-1.2271,-1.2253,-1.2233,-1.2212,-1.2214,-1.2214,-1.222,-1.2308,-1.2328,-1.2266,-1.2267,-1.2267,-1.2268,-1.2268,-1.2289,-1.231,-1.2261,-1.2242,-1.2209,-1.2175,-1.2177,-1.2137,-1.2121,-1.21,-1.2111,-1.2177,-1.2182,-1.2188,-1.2204,-1.2114,-1.2114,-1.2114,-1.2114,-1.2237,-1.2241,-1.2188,-1.2158,-1.2128,-1.2124,-1.2063,-1.2047,-1.2034,-1.2023,-1.2037,-1.2059,-1.2066,-1.2066,-1.2076,-1.209,-1.1973,-1.1973,-1.1973,-1.2177,-1.2177,-1.2127,-1.2116,-1.209,-1.2066,-1.2008,-1.1969,-1.1958,-1.1967,-1.2013,-1.2019,-1.2055,-1.2068,-1.2075,-1.209,-1.2117,0,0]}]]